• In Netherlands
  • List of Countries
  • For 7 days
  • Water Temperature
  • Satellite Maps
  • Weather Map
  • Weather Widgets
  • user-avatar
    Login

    Hourly Weather Jaú

    Today, 19 August, Saturday

    Time Temperature Precipitation Wind Pressure Humidity
    00:00 +37°C° 0 mm 1 mps 749 mmHg 45%
    01:00 +36°C° 0 mm 1 mps 749 mmHg 44%
    02:00 +36°C° 0 mm 1 mps 749 mmHg 44%
    03:00 +37°C° 0 mm 2 mps 749 mmHg 43%
    04:00 +37°C° 0 mm 2 mps 749 mmHg 44%
    05:00 +38°C° 0 mm 3 mps 749 mmHg 44%
    06:00 +38°C° 0 mm 4 mps 749 mmHg 44%
    07:00 +41°C° 0 mm 4 mps 749 mmHg 39%
    08:00 +42°C° 0 mm 4 mps 750 mmHg 33%
    09:00 +44°C° 0 mm 4 mps 750 mmHg 27%
    10:00 +45°C° 0 mm 3 mps 750 mmHg 25%
    11:00 +46°C° 0 mm 3 mps 749 mmHg 23%
    12:00 +48°C° 0 mm 3 mps 749 mmHg 20%
    13:00 +47°C° 0 mm 3 mps 749 mmHg 22%
    14:00 +48°C° 0 mm 4 mps 748 mmHg 23%
    15:00 +48°C° 0 mm 4 mps 748 mmHg 24%
    16:00 +45°C° 0 mm 4 mps 748 mmHg 29%
    17:00 +44°C° 0 mm 4 mps 748 mmHg 33%
    18:00 +43°C° 0 mm 4 mps 748 mmHg 37%
    19:00 +42°C° 0 mm 3 mps 748 mmHg 40%
    20:00 +40°C° 0 mm 3 mps 748 mmHg 42%
    21:00 +39°C° 0 mm 2 mps 749 mmHg 45%
    22:00 +39°C° 0 mm 2 mps 749 mmHg 46%
    23:00 +38°C° 0 mm 3 mps 749 mmHg 47%

    Tomorrow, 20 August, Sunday

    Time Temperature Precipitation Wind Pressure Humidity
    00:00 +38°C° 0 mm 3 mps 749 mmHg 49%
    01:00 +37°C° 0 mm 2 mps 748 mmHg 53%
    02:00 +37°C° 0 mm 2 mps 748 mmHg 57%
    03:00 +35°C° 0 mm 1 mps 748 mmHg 61%
    04:00 +36°C° 0 mm 1 mps 749 mmHg 59%
    05:00 +36°C° 0 mm 1 mps 749 mmHg 57%
    06:00 +36°C° 0 mm 1 mps 749 mmHg 55%
    07:00 +39°C° 0 mm 1 mps 749 mmHg 50%
    08:00 +40°C° 0 mm 1 mps 750 mmHg 45%
    09:00 +41°C° 0 mm 1 mps 750 mmHg 40%
    10:00 +42°C° 0 mm 1 mps 750 mmHg 38%
    11:00 +43°C° 0 mm 2 mps 750 mmHg 37%
    12:00 +44°C° 0 mm 3 mps 749 mmHg 36%
    13:00 +45°C° 0 mm 3 mps 749 mmHg 35%
    14:00 +45°C° 0 mm 4 mps 749 mmHg 35%
    15:00 +45°C° 0 mm 4 mps 748 mmHg 35%
    16:00 +45°C° 0 mm 4 mps 748 mmHg 36%
    17:00 +45°C° 0 mm 5 mps 748 mmHg 37%
    18:00 +45°C° 0 mm 5 mps 748 mmHg 38%
    19:00 +43°C° 0 mm 4 mps 748 mmHg 39%
    20:00 +42°C° 0 mm 4 mps 749 mmHg 40%
    21:00 +42°C° 0 mm 3 mps 749 mmHg 41%
    22:00 +42°C° 0 mm 3 mps 749 mmHg 41%
    23:00 +40°C° 0 mm 3 mps 749 mmHg 41%

    Day after tomorrow, 21 August, Monday

    Time Temperature Precipitation Wind Pressure Humidity
    00:00 +41°C° 0 mm 4 mps 748 mmHg 41%
    01:00 +40°C° 0 mm 4 mps 748 mmHg 46%
    02:00 +38°C° 0 mm 4 mps 748 mmHg 52%
    03:00 +38°C° 0 mm 4 mps 748 mmHg 57%
    04:00 +38°C° 0 mm 4 mps 748 mmHg 58%
    05:00 +38°C° 0 mm 3 mps 748 mmHg 58%
    06:00 +38°C° 0 mm 3 mps 749 mmHg 59%
    07:00 +39°C° 0 mm 3 mps 749 mmHg 53%
    08:00 +40°C° 0 mm 2 mps 749 mmHg 47%
    09:00 +41°C° 0 mm 2 mps 750 mmHg 41%
    10:00 +42°C° 0 mm 2 mps 749 mmHg 37%
    11:00 +43°C° 0 mm 2 mps 749 mmHg 33%
    12:00 +45°C° 0 mm 2 mps 749 mmHg 29%
    13:00 +46°C° 0 mm 3 mps 748 mmHg 27%
    14:00 +47°C° 0 mm 4 mps 748 mmHg 26%
    15:00 +47°C° 0 mm 5 mps 747 mmHg 25%
    16:00 +46°C° 0 mm 5 mps 747 mmHg 29%
    17:00 +45°C° 0 mm 5 mps 747 mmHg 32%
    18:00 +43°C° 0 mm 5 mps 747 mmHg 36%
    19:00 +43°C° 0 mm 5 mps 747 mmHg 37%
    20:00 +42°C° 0 mm 4 mps 748 mmHg 38%
    21:00 +42°C° 0 mm 4 mps 748 mmHg 40%
    22:00 +41°C° 0 mm 4 mps 748 mmHg 39%
    23:00 +41°C° 0 mm 4 mps 748 mmHg 39%

    22 August, Tuesday

    Time Temperature Precipitation Wind Pressure Humidity
    00:00 +40°C° 0 mm 4 mps 748 mmHg 39%
    01:00 +40°C° 0 mm 4 mps 747 mmHg 42%
    02:00 +38°C° 0 mm 4 mps 747 mmHg 44%
    03:00 +38°C° 0 mm 4 mps 747 mmHg 47%
    04:00 +37°C° 0 mm 3 mps 747 mmHg 47%
    05:00 +37°C° 0 mm 3 mps 747 mmHg 48%
    06:00 +37°C° 0 mm 3 mps 748 mmHg 48%
    07:00 +38°C° 0 mm 2 mps 748 mmHg 43%
    08:00 +40°C° 0 mm 2 mps 748 mmHg 38%
    09:00 +41°C° 0 mm 1 mps 749 mmHg 33%
    10:00 +42°C° 0 mm 1 mps 748 mmHg 30%
    11:00 +43°C° 0 mm 1 mps 748 mmHg 28%
    12:00 +44°C° 0 mm 1 mps 748 mmHg 25%
    13:00 +45°C° 0 mm 2 mps 747 mmHg 24%
    14:00 +46°C° 0 mm 3 mps 747 mmHg 24%
    15:00 +47°C° 0 mm 4 mps 746 mmHg 23%
    16:00 +46°C° 0 mm 5 mps 746 mmHg 27%
    17:00 +45°C° 0 mm 5 mps 746 mmHg 30%
    18:00 +44°C° 0 mm 6 mps 747 mmHg 33%
    19:00 +43°C° 0 mm 5 mps 747 mmHg 33%
    20:00 +42°C° 0 mm 5 mps 747 mmHg 34%
    21:00 +42°C° 0 mm 5 mps 748 mmHg 34%
    22:00 +41°C° 0 mm 5 mps 748 mmHg 35%
    23:00 +40°C° 0 mm 4 mps 747 mmHg 36%

    23 August, Wednesday

    Time Temperature Precipitation Wind Pressure Humidity
    00:00 +40°C° 0 mm 4 mps 747 mmHg 37%
    01:00 +38°C° 0 mm 4 mps 747 mmHg 39%
    02:00 +38°C° 0 mm 4 mps 747 mmHg 40%
    03:00 +38°C° 0 mm 4 mps 747 mmHg 42%
    04:00 +37°C° 0 mm 4 mps 748 mmHg 43%
    05:00 +37°C° 0 mm 3 mps 748 mmHg 45%
    06:00 +37°C° 0 mm 3 mps 749 mmHg 46%
    07:00 +39°C° 0 mm 3 mps 749 mmHg 41%
    08:00 +40°C° 0 mm 3 mps 749 mmHg 35%
    09:00 +43°C° 0 mm 3 mps 750 mmHg 30%
    10:00 +44°C° 0 mm 3 mps 749 mmHg 27%
    11:00 +45°C° 0 mm 2 mps 749 mmHg 23%
    12:00 +45°C° 0 mm 1 mps 749 mmHg 20%
    13:00 +46°C° 0 mm 3 mps 749 mmHg 20%
    14:00 +47°C° 0 mm 4 mps 748 mmHg 21%
    15:00 +47°C° 0 mm 5 mps 748 mmHg 21%
    16:00 +46°C° 0 mm 5 mps 748 mmHg 24%
    17:00 +45°C° 0 mm 5 mps 748 mmHg 28%
    18:00 +43°C° 0 mm 5 mps 749 mmHg 31%
    19:00 +42°C° 0 mm 5 mps 749 mmHg 32%
    20:00 +41°C° 0 mm 4 mps 749 mmHg 34%
    21:00 +41°C° 0 mm 4 mps 750 mmHg 35%
    22:00 +39°C° 0 mm 3 mps 750 mmHg 34%
    23:00 +39°C° 0 mm 3 mps 749 mmHg 33%

    24 August, Thursday

    Time Temperature Precipitation Wind Pressure Humidity
    00:00 +38°C° 0 mm 2 mps 749 mmHg 32%
    01:00 +38°C° 0 mm 3 mps 749 mmHg 32%
    02:00 +38°C° 0 mm 3 mps 749 mmHg 31%
    03:00 +37°C° 0 mm 3 mps 749 mmHg 31%
    04:00 +37°C° 0 mm 3 mps 749 mmHg 35%
    05:00 +37°C° 0 mm 3 mps 750 mmHg 39%
    06:00 +37°C° 0 mm 3 mps 750 mmHg 44%
    07:00 +39°C° 0 mm 2 mps 750 mmHg 39%
    08:00 +40°C° 0 mm 2 mps 751 mmHg 34%
    09:00 +42°C° 0 mm 1 mps 751 mmHg 28%
    10:00 +43°C° 0 mm 1 mps 751 mmHg 26%
    11:00 +44°C° 0 mm 1 mps 750 mmHg 23%
    12:00 +45°C° 0 mm 1 mps 750 mmHg 21%
    13:00 +46°C° 0 mm 2 mps 750 mmHg 20%
    14:00 +47°C° 0 mm 4 mps 750 mmHg 20%
    15:00 +47°C° 0 mm 5 mps 749 mmHg 19%
    16:00 +46°C° 0 mm 5 mps 750 mmHg 23%
    17:00 +43°C° 0 mm 4 mps 750 mmHg 26%
    18:00 +42°C° 0 mm 4 mps 750 mmHg 30%
    19:00 +41°C° 0 mm 4 mps 750 mmHg 32%
    20:00 +41°C° 0 mm 4 mps 750 mmHg 34%
    21:00 +39°C° 0 mm 3 mps 751 mmHg 37%
    22:00 +39°C° 0 mm 3 mps 750 mmHg 37%
    23:00 +38°C° 0 mm 2 mps 750 mmHg 38%
    Show more